TimeCST,TemperatureF,Dew PointF,Humidity,Sea Level PressureIn,VisibilityMPH,Wind Direction,Wind SpeedMPH,Gust SpeedMPH,PrecipitationIn,Events,Conditions,WindDirDegrees,DateUTC
12:53 AM,12.9,9.0,84,30.27,10.0,SSW,4.6,-,N/A,,Clear,200,2012-11-13 06:53:00
1:53 AM,12.0,8.1,84,30.28,10.0,South,5.8,-,N/A,,Clear,180,2012-11-13 07:53:00
2:53 AM,12.0,8.1,84,30.29,10.0,South,4.6,-,N/A,,Clear,180,2012-11-13 08:53:00
3:53 AM,10.9,7.0,84,30.28,10.0,SSE,4.6,-,N/A,,Clear,160,2012-11-13 09:53:00
4:53 AM,12.0,8.1,84,30.28,10.0,SSE,4.6,-,N/A,,Clear,150,2012-11-13 10:53:00
5:53 AM,12.0,7.0,80,30.28,10.0,South,4.6,-,N/A,,Clear,170,2012-11-13 11:53:00
6:53 AM,12.0,7.0,80,30.29,10.0,South,5.8,-,N/A,,Clear,170,2012-11-13 12:53:00
7:53 AM,12.9,10.0,88,30.29,10.0,South,5.8,-,N/A,,Clear,190,2012-11-13 13:53:00
8:53 AM,18.0,14.0,84,30.29,10.0,South,3.5,-,N/A,,Clear,190,2012-11-13 14:53:00
9:53 AM,21.0,17.1,85,30.29,10.0,SSW,4.6,-,N/A,,Clear,200,2012-11-13 15:53:00
10:53 AM,26.1,19.9,78,30.30,10.0,South,6.9,-,N/A,,Clear,180,2012-11-13 16:53:00
11:53 AM,30.0,23.0,75,30.29,10.0,SSW,6.9,-,N/A,,Clear,200,2012-11-13 17:53:00
12:53 PM,32.0,24.1,73,30.27,10.0,SSW,6.9,-,N/A,,Partly Cloudy,200,2012-11-13 18:53:00
1:53 PM,33.1,24.1,70,30.26,10.0,South,5.8,-,N/A,,Overcast,180,2012-11-13 19:53:00
2:53 PM,33.1,25.0,72,30.26,10.0,South,4.6,-,N/A,,Overcast,180,2012-11-13 20:53:00
3:53 PM,34.0,26.1,73,30.27,10.0,Calm,Calm,-,N/A,,Mostly Cloudy,0,2012-11-13 21:53:00
4:53 PM,33.1,25.0,72,30.27,10.0,SE,3.5,-,N/A,,Overcast,140,2012-11-13 22:53:00
5:53 PM,32.0,25.0,75,30.26,10.0,SE,5.8,-,N/A,,Overcast,130,2012-11-13 23:53:00
6:53 PM,30.9,25.0,79,30.27,10.0,Calm,Calm,-,N/A,,Overcast,0,2012-11-14 00:53:00
7:53 PM,30.9,25.0,79,30.28,10.0,Calm,Calm,-,N/A,,Overcast,0,2012-11-14 01:53:00
8:53 PM,30.9,26.1,82,30.28,10.0,Calm,Calm,-,N/A,,Overcast,0,2012-11-14 02:53:00
9:53 PM,30.9,26.1,82,30.27,10.0,Calm,Calm,-,N/A,,Overcast,0,2012-11-14 03:53:00
10:53 PM,30.9,25.0,79,30.25,10.0,Calm,Calm,-,N/A,,Overcast,0,2012-11-14 04:53:00
11:53 PM,28.9,25.0,85,30.25,10.0,Calm,Calm,-,N/A,,Clear,0,2012-11-14 05:53:00